User: anonymous   Login
Location: Unspecified
(0.0000°N, 0.0000°E)
Time: 18:51:24
(UTC+00:00)
Language:

Sapphire - Orbit

View from above orbital plane
View from above orbital plane
View from above satellite
View from above satellite

Ground track
Ground track

The orbit data is extracted from the following two-line orbital elements,

1 26932U 01043D   17145.48994906 -.00000042 +00000-0 +15809-4 0  9991
2 26932 067.0543 152.0614 0009168 277.6765 082.3295 14.30249307817055
Epoch (UTC): 25 May 2017 11:45:31
Eccentricity: 0.0009168
inclination: 67.0543°
perigee height: 784 km
apogee height: 797 km
right ascension of ascending node: 152.0614°
argument of perigee: 277.6765°
revolutions per day: 14.30249307
mean anomaly at epoch: 82.3295°
orbit number at epoch: 81705

The dashed part of the orbit path shows where the satellite is in the earth's shadow,  

DLR